Location: Unspecified
(42.9300°N, 71.1866°W)
Time: 17:44:11
(UTC-05:00)

Genesis I - Visible Passes

Search period start: 19 December 2014 00:00
Search period end: 29 December 2014 00:00
Orbit: 495 x 562 km, 64.5° (Epoch: 18 December)

Date Brightness Start Highest point End Pass type
(mag) Time Alt. Az. Time Alt. Az. Time Alt. Az.
19 Dec 5.5 04:11:52 24° E 04:11:52 24° E 04:14:09 10° ESE visible
19 Dec 4.3 05:47:10 25° W 05:48:25 30° WSW 05:52:02 10° S visible
20 Dec 6.0 04:01:17 19° E 04:01:17 19° E 04:02:40 10° ESE visible
20 Dec 4.4 05:36:35 27° WSW 05:36:46 27° WSW 05:40:16 10° S visible
21 Dec 6.4 03:50:47 12° ESE 03:50:47 12° ESE 03:51:10 10° ESE visible
21 Dec 4.8 05:26:05 22° SW 05:26:05 22° SW 05:28:27 10° SSW visible
22 Dec 5.5 05:15:38 15° SSW 05:15:38 15° SSW 05:16:36 10° SSW visible
23 Dec 5.7 18:50:46 10° SSW 18:51:33 15° SSW 18:51:33 15° SSW visible
24 Dec 4.8 18:39:02 10° SSW 18:41:04 28° SSW 18:41:04 28° SSW visible
25 Dec 3.7 18:27:18 10° SSW 18:30:29 54° S 18:30:29 54° S visible
26 Dec 3.1 18:15:34 10° SSW 18:19:34 81° ESE 18:19:49 76° ENE visible
27 Dec 3.2 18:03:49 10° SSW 18:07:50 89° NW 18:09:02 45° NNE visible
27 Dec 6.6 19:44:18 10° WNW 19:44:19 10° WNW 19:44:19 10° WNW visible
28 Dec 3.3 17:52:04 10° SW 17:56:05 80° NW 17:58:10 28° NNE visible
28 Dec 6.4 19:32:53 10° WNW 19:33:26 11° NW 19:33:26 11° NW visible
